Location: Austin
(30.3000°N, 97.7500°W)
Time: 03:51:47
(UTC-05:00)

SL-14 R/B - Pass Details

Date: 01 October 2024
Orbit: 505 x 538 km, 82.4° (Epoch: 06 October)

Event Time Altitude Azimuth Distance (km) Brightness Sun altitude
Rises 19:40:28 0° 357° (N) 2,655 6.9 -6.2°
Reaches altitude 10° 19:42:37 10° 360° (N) 1,768 5.9 -6.7°
Maximum altitude 19:46:29 68° 83° (E) 570 3.2 -7.5°
Drops below altitude 10° 19:50:22 10° 167° (SSE) 1,774 5.8 -8.3°
Sets 19:52:31 0° 170° (S) 2,665 6.7 -8.8°
